This demonstration page uses our WeatherBlox Daily Observations layout. Learn more.

Left ArrowRight Arrow

53.62937, 11.41316

Hourly Observations for March 31, 2018

Temp ( °F °C ) Dew Point ( °F °C ) Humidity (%) Winds ( mph kmh ) Pressure ( in mb ) Visibility ( mi km ) Precip ( " mm )
4:50 am 04:50 Mostly Clear 34 1 30 -1 87 87 E 10 17 29.62 1003 7 11 N/A
5:20 am 05:20 Mostly Clear 34 1 30 -1 87 87 ENE 12 19 29.62 1003 7 11 N/A
5:50 am 05:50 Mostly Clear 34 1 30 -1 87 87 E 12 19 29.62 1003 7 11 N/A
6:20 am 06:20 Mostly Clear 34 1 30 -1 87 87 ENE 12 19 29.62 1003 7 11 N/A
6:50 am 06:50 Mostly Clear 34 1 30 -1 87 87 ENE 12 19 29.62 1003 7 11 N/A
7:20 am 07:20 Mostly Sunny 34 1 30 -1 87 87 E 10 17 29.62 1003 7 11 N/A
7:50 am 07:50 Mostly Sunny 34 1 30 -1 87 87 E 10 17 29.62 1003 7 11 N/A
8:20 am 08:20 Mostly Sunny 34 1 30 -1 87 87 ENE 13 20 29.62 1003 7 11 N/A
8:50 am 08:50 Mostly Sunny 34 1 30 -1 87 87 E 9 15 29.62 1003 7 11 N/A
9:20 am 09:20 Mostly Sunny 34 1 30 -1 87 87 ENE 12 19 29.62 1003 7 11 N/A
9:50 am 09:50 Mostly Sunny 36 2 30 -1 81 81 E 12 19 29.62 1003 7 11 N/A
10:20 am 10:20 Mostly Sunny 36 2 30 -1 81 81 ENE 10 17 29.62 1003 7 11 N/A
10:50 am 10:50 Mostly Cloudy with Light Wintry Mix 36 2 32 0 87 87 ENE 12 19 29.62 1003 30 48 N/A
11:20 am 11:20 Mostly Cloudy 36 2 32 0 87 87 ENE 9 15 29.62 1003 30 48 N/A
11:50 am 11:50 Mostly Cloudy with Light Wintry Mix 36 2 34 1 93 93 ENE 10 17 29.62 1003 30 48 N/A
12:20 pm 12:20 Mostly Cloudy with Light Rain/Snow 36 2 34 1 93 93 ENE 9 15 29.62 1003 30 48 N/A
12:50 pm 12:50 Mostly Cloudy with Light Rain 37 3 34 1 87 87 NE 12 19 29.59 1002 30 48 N/A
1:20 pm 13:20 Partly Cloudy with Light Rain 37 3 34 1 87 87 NE 14 22 29.59 1002 30 48 N/A
1:50 pm 13:50 Partly Cloudy with Light Rain 37 3 36 2 93 93 NE 10 17 29.59 1002 30 48 N/A
2:20 pm 14:20 Partly Cloudy with Light Rain 37 3 34 1 87 87 NE 13 20 29.59 1002 30 48 N/A
2:50 pm 14:50 Mostly Sunny 36 2 34 1 93 93 NNE 12 19 29.59 1002 30 48 N/A
3:20 pm 15:20 Partly Cloudy with Light Wintry Mix 36 2 34 1 93 93 NNE 14 22 29.59 1002 30 48 N/A
3:50 pm 15:50 Mostly Cloudy with Light Wintry Mix 36 2 34 1 93 93 NNE 15 24 29.59 1002 30 48 N/A
4:20 pm 16:20 Mostly Cloudy with Snow 34 1 34 1 100 100 NNE 16 26 29.59 1002 1 2 N/A
4:50 pm 16:50 Mostly Cloudy with Snow 32 0 32 0 100 100 NNE 12 19 29.59 1002 1 1 N/A
5:20 pm 17:20 Cloudy with Light Snow 32 0 32 0 100 100 NNE 12 19 29.59 1002 1 1 N/A
5:50 pm 17:50 Mostly Cloudy with Light Snow 32 0 32 0 100 100 NNE 14 22 29.59 1002 1 1 N/A
6:20 pm 18:20 Mostly Cloudy with Light Snow 32 0 32 0 100 100 NNE 15 24 29.59 1002 1 1 N/A

Powered by AerisWeather